Home > Weather > Butare > Past weeks

Flag for Rwanda Weather for the Past 2 Weeks in Butare, Rwanda

Now
70 °F

Passing clouds.


Feels Like: 70 °F
Forecast: 58 / 80 °F
Wind: No wind

Location: Kigali Airport

Current Time: Feb 7, 2016 at 2:16:28 AM

Latest Report: Feb 7, 2016 at 1:00 AM


Visibility: N/A

Pressure: 30.15 "Hg (24.60 "Hg at 1750m altitude)

Humidity: 78%

Dew point: 63 °F

Location of ButareLocation

Historic Weather in Butare — Graph

°F

Butare Temperature Yesterday

Maximum temperature yesterday: 88 °F (at 2:30 PM)
Minimum temperature yesterday: 63 °F (at 7:00 AM)
Average temperature yesterday: 76 °F

High & Low Weather Summary for the Past Weeks

 TemperatureHumidityPressure
High90 °F (Feb 4, 3:30 PM)100% (Jan 23, 2:30 AM)30.24 "Hg (Jan 23, 2:30 AM)
Low45 °F (Feb 2, 7:30 AM)29% (Feb 5, 1:00 PM)29.98 "Hg (Feb 5, 4:00 PM)
Average72 °F76%30.13 "Hg
* Reported Jan 23 1:00 AM — Feb 7 1:00 AM, Butare, Weather by CustomWeather, © 2016

Note: Actual official high and low records may vary slightly from our data, if they occured in-between our weather recording intervals... More about our weather records

Advertising

Butare Weather History for the Previous 24 Hours

 ConditionsComfort  
Time TempWeatherWind HumidityBarometerVisibility
1:00 AM
Sun, Feb 7
70 °FPassing clouds.No wind78%30.15 "HgN/A
12:30 AM70 °FPassing clouds.3 mph78%30.15 "HgN/A
12:00 AM70 °FPassing clouds.5 mph78%30.15 "HgN/A
11:00 PM
Sat, Feb 6
72 °FPassing clouds.6 mph73%30.15 "HgN/A
10:30 PM73 °FPartly cloudy.7 mph69%30.15 "HgN/A
10:00 PM73 °FPartly cloudy.5 mph69%30.15 "HgN/A
9:30 PM75 °FPartly cloudy.3 mph65%30.12 "HgN/A
9:00 PM75 °FPassing clouds.3 mph65%30.12 "HgN/A
8:30 PM77 °FPassing clouds.3 mph54%30.07 "HgN/A
8:00 PM79 °FPassing clouds.3 mph42%30.07 "HgN/A
7:30 PM79 °FPassing clouds.6 mph42%30.04 "HgN/A
7:00 PM81 °FPassing clouds.8 mph37%30.04 "HgN/A
6:30 PM82 °FPassing clouds.10 mph32%30.01 "HgN/A
6:00 PM84 °FPassing clouds.12 mph31%30.01 "HgN/A
5:30 PM84 °FPassing clouds.14 mph31%29.98 "HgN/A
5:00 PM86 °FPassing clouds.13 mph29%29.98 "HgN/A
4:30 PM86 °FPassing clouds.13 mph29%29.98 "HgN/A
4:00 PM86 °FScattered clouds.10 mph31%29.98 "HgN/A
3:30 PM84 °FScattered clouds.12 mph33%29.98 "HgN/A
3:00 PM86 °FScattered clouds.13 mph29%30.01 "HgN/A
2:30 PM88 °FScattered clouds.15 mph29%30.01 "HgN/A
2:00 PM86 °FScattered clouds.15 mph33%30.04 "HgN/A
1:30 PM86 °FPassing clouds.13 mph33%30.04 "HgN/A
12:30 PM86 °FPassing clouds.15 mph31%30.09 "HgN/A
12:00 PM86 °FPassing clouds.13 mph29%30.12 "HgN/A
11:30 AM84 °FPassing clouds.8 mph48%30.15 "HgN/A
11:00 AM81 °FPassing clouds.5 mph51%30.15 "HgN/A
10:30 AM77 °FPassing clouds.7 mph57%30.18 "HgN/A
10:00 AM77 °FPassing clouds.2 mph57%30.18 "HgN/A
9:00 AM73 °FPassing clouds.No wind65%30.18 "HgN/A
8:30 AM72 °FPassing clouds.No wind69%30.18 "HgN/A
8:00 AM68 °FPassing clouds.No wind73%30.18 "HgN/A
7:30 AM66 °FScattered clouds.No wind78%30.15 "HgN/A
7:00 AM63 °FScattered clouds.2 mph88%30.15 "HgN/A
6:00 AM66 °FPassing clouds.No wind73%30.12 "HgN/A
5:30 AM66 °FPassing clouds.No wind78%30.12 "HgN/A
5:00 AM66 °FPassing clouds.No wind78%30.12 "HgN/A
4:30 AM66 °FPassing clouds.3 mph73%30.12 "HgN/A
4:00 AM64 °FPassing clouds.5 mph78%30.09 "HgN/A
3:30 AM66 °FPassing clouds.5 mph73%30.09 "HgN/A
2:30 AM68 °FPassing clouds.5 mph69%30.09 "HgN/A
2:00 AM70 °FPassing clouds.5 mph69%30.09 "HgN/A
Weather by CustomWeather, © 2016

See weather overviewHow to use our weather pages